AAL2727 KLAS-KPHX

Flight info

Callsign AAL2727
Flight time 0h 45m
Altitude 29000
Route RASLR3 ZAYNE WOTRO BRUSR1
Aircraft A320/M-SDE3FGHIRWY/LB1

Departure

Time 2026-05-04 01:56
Airport Harry Reid International Airport (KLAS)

Arrival

Time 2026-05-04 02:42
Airport Phoenix Sky Harbor International Airport (KPHX)
Time Latitude Longitude Altitude Speed Heading
2026-05-04 01:36 36.08076 -115.13483 2091 ft 0 kts 242°
2026-05-04 01:47 36.08077 -115.13482 2091 ft 2 kts 242°
2026-05-04 01:47 36.08087 -115.13459 2091 ft 3 kts 235°
2026-05-04 01:47 36.08100 -115.13439 2090 ft 3 kts 224°
2026-05-04 01:48 36.08116 -115.13424 2090 ft 3 kts 197°
2026-05-04 01:48 36.08132 -115.13423 2090 ft 3 kts 138°
2026-05-04 01:48 36.08137 -115.13429 2090 ft 0 kts 135°
2026-05-04 01:52 36.08137 -115.13428 2090 ft 1 kts 135°
2026-05-04 01:52 36.08111 -115.13398 2090 ft 9 kts 141°
2026-05-04 01:52 36.08041 -115.13375 2089 ft 12 kts 177°
2026-05-04 01:53 36.07955 -115.13374 2089 ft 13 kts 180°
2026-05-04 01:53 36.07859 -115.13374 2089 ft 15 kts 180°
2026-05-04 01:53 36.07764 -115.13342 2089 ft 16 kts 123°
2026-05-04 01:53 36.07755 -115.13196 2085 ft 19 kts 90°
2026-05-04 01:54 36.07755 -115.13006 2078 ft 25 kts 90°
2026-05-04 01:54 36.07755 -115.12767 2068 ft 30 kts 90°
2026-05-04 01:54 36.07755 -115.12485 2058 ft 35 kts 90°
2026-05-04 01:54 36.07749 -115.12270 2052 ft 12 kts 107°
2026-05-04 01:55 36.07665 -115.12246 2050 ft 14 kts 205°
2026-05-04 01:55 36.07643 -115.12330 2052 ft 0 kts 269°
2026-05-04 01:55 36.07642 -115.12367 2053 ft 24 kts 269°
2026-05-04 01:55 36.07640 -115.12854 2072 ft 88 kts 270°
2026-05-04 01:56 36.07639 -115.13834 2093 ft 138 kts 270°
2026-05-04 01:56 36.07642 -115.15192 2202 ft 170 kts 266°
2026-05-04 01:56 36.07647 -115.16659 2840 ft 171 kts 267°
2026-05-04 01:56 36.07643 -115.18127 3492 ft 171 kts 263°
2026-05-04 01:57 36.07637 -115.19621 3976 ft 180 kts 263°
2026-05-04 01:57 36.07561 -115.21249 4146 ft 199 kts 255°
2026-05-04 01:57 36.07305 -115.23038 4315 ft 224 kts 254°
2026-05-04 01:57 36.06875 -115.24945 4764 ft 233 kts 236°
2026-05-04 01:58 36.05759 -115.26385 5312 ft 242 kts 207°
2026-05-04 01:58 36.04156 -115.27161 5924 ft 253 kts 200°
2026-05-04 01:58 36.02480 -115.27905 6728 ft 257 kts 200°
2026-05-04 01:58 36.00780 -115.28636 7562 ft 262 kts 194°
2026-05-04 01:59 35.99571 -115.28780 7840 ft 267 kts 175°
2026-05-04 01:59 35.97848 -115.27896 8309 ft 279 kts 145°
2026-05-04 01:59 35.96383 -115.26290 9175 ft 283 kts 142°
2026-05-04 01:59 35.94908 -115.24660 10020 ft 285 kts 142°
2026-05-04 02:00 35.92875 -115.22429 10537 ft 310 kts 142°
2026-05-04 02:00 35.91315 -115.20434 10747 ft 337 kts 131°
2026-05-04 02:00 35.90425 -115.18785 11070 ft 347 kts 124°
2026-05-04 02:00 35.89196 -115.16196 11758 ft 351 kts 125°
2026-05-04 02:01 35.87942 -115.13597 12484 ft 354 kts 125°
2026-05-04 02:01 35.86745 -115.10961 13195 ft 361 kts 119°
2026-05-04 02:01 35.85896 -115.08007 13837 ft 368 kts 110°
2026-05-04 02:01 35.85165 -115.04971 14458 ft 371 kts 109°
2026-05-04 02:02 35.84423 -115.01894 15058 ft 375 kts 110°
2026-05-04 02:02 35.83675 -114.98796 15563 ft 380 kts 110°
2026-05-04 02:02 35.82919 -114.95656 16134 ft 384 kts 110°
2026-05-04 02:02 35.82156 -114.92486 16739 ft 388 kts 110°
2026-05-04 02:03 35.81379 -114.89282 17333 ft 392 kts 110°
2026-05-04 02:03 35.80590 -114.86050 17961 ft 395 kts 110°
2026-05-04 02:03 35.79804 -114.82829 18518 ft 400 kts 110°
2026-05-04 02:03 35.79000 -114.79530 18996 ft 405 kts 110°
2026-05-04 02:04 35.78183 -114.76171 19408 ft 413 kts 110°
2026-05-04 02:04 35.77353 -114.72765 19875 ft 420 kts 111°
2026-05-04 02:04 35.76504 -114.69294 20324 ft 426 kts 111°
2026-05-04 02:04 35.75641 -114.65777 20787 ft 433 kts 111°
2026-05-04 02:05 35.74761 -114.62199 21224 ft 439 kts 112°
2026-05-04 02:05 35.73869 -114.58571 21639 ft 446 kts 112°
2026-05-04 02:05 35.72962 -114.54889 22058 ft 452 kts 112°
2026-05-04 02:05 35.72041 -114.51156 22403 ft 459 kts 112°
2026-05-04 02:06 35.71103 -114.47379 22811 ft 463 kts 114°
2026-05-04 02:06 35.69867 -114.43789 23237 ft 459 kts 126°
2026-05-04 02:06 35.68111 -114.40555 23581 ft 452 kts 138°
2026-05-04 02:06 35.65935 -114.37831 23931 ft 444 kts 148°
2026-05-04 02:07 35.63574 -114.35362 24314 ft 447 kts 148°
2026-05-04 02:07 35.61201 -114.32873 24646 ft 451 kts 148°
2026-05-04 02:07 35.58805 -114.30350 24997 ft 455 kts 148°
2026-05-04 02:07 35.56393 -114.27806 25349 ft 459 kts 148°
2026-05-04 02:08 35.53967 -114.25246 25708 ft 462 kts 148°
2026-05-04 02:08 35.51522 -114.22664 26073 ft 465 kts 148°
2026-05-04 02:08 35.49060 -114.20066 26467 ft 468 kts 148°
2026-05-04 02:08 35.46578 -114.17452 26874 ft 472 kts 148°
2026-05-04 02:09 35.44082 -114.14831 27175 ft 475 kts 148°
2026-05-04 02:09 35.41597 -114.12228 27462 ft 477 kts 148°
2026-05-04 02:09 35.39064 -114.09575 27820 ft 479 kts 148°
2026-05-04 02:09 35.36524 -114.06915 28185 ft 482 kts 148°
2026-05-04 02:10 35.34021 -114.04150 28536 ft 491 kts 141°
2026-05-04 02:10 35.31832 -114.00878 28832 ft 504 kts 131°
2026-05-04 02:10 35.30100 -113.97110 28896 ft 511 kts 119°
2026-05-04 02:10 35.28937 -113.92987 28897 ft 516 kts 108°
2026-05-04 02:11 35.27210 -113.84458 28862 ft 516 kts 108°
2026-05-04 02:11 35.25446 -113.75954 28853 ft 516 kts 108°
2026-05-04 02:12 35.23657 -113.67452 28833 ft 515 kts 108°
2026-05-04 02:12 35.21911 -113.58942 28807 ft 517 kts 107°
2026-05-04 02:13 35.20322 -113.50431 28775 ft 517 kts 106°
2026-05-04 02:13 35.18753 -113.41855 28778 ft 516 kts 106°
2026-05-04 02:14 35.16904 -113.33410 28802 ft 510 kts 116°
2026-05-04 02:14 35.13522 -113.25931 28788 ft 499 kts 130°
2026-05-04 02:15 35.09648 -113.18882 28796 ft 500 kts 130°
2026-05-04 02:15 35.05783 -113.11810 28554 ft 501 kts 130°
2026-05-04 02:16 35.03845 -113.08277 28300 ft 500 kts 130°
2026-05-04 02:16 35.01907 -113.04758 28046 ft 499 kts 130°
2026-05-04 02:16 34.99991 -113.01296 27788 ft 496 kts 130°
2026-05-04 02:16 34.98060 -112.97818 27521 ft 494 kts 130°
2026-05-04 02:17 34.96135 -112.94362 27285 ft 493 kts 130°
2026-05-04 02:17 34.94214 -112.90908 27025 ft 491 kts 130°
2026-05-04 02:17 34.92307 -112.87478 26772 ft 488 kts 130°
2026-05-04 02:17 34.90405 -112.84058 26516 ft 486 kts 130°
2026-05-04 02:18 34.88514 -112.80656 26263 ft 484 kts 130°
2026-05-04 02:18 34.86635 -112.77277 26008 ft 481 kts 130°
2026-05-04 02:18 34.84759 -112.73913 25763 ft 479 kts 130°
2026-05-04 02:18 34.82889 -112.70568 25519 ft 476 kts 130°
2026-05-04 02:19 34.81031 -112.67249 25272 ft 474 kts 130°
2026-05-04 02:19 34.79178 -112.63939 25018 ft 472 kts 130°
2026-05-04 02:19 34.77331 -112.60648 24770 ft 470 kts 130°
2026-05-04 02:19 34.75489 -112.57369 24544 ft 468 kts 130°
2026-05-04 02:20 34.73684 -112.54152 24303 ft 466 kts 130°
2026-05-04 02:20 34.71861 -112.50904 24060 ft 463 kts 131°
2026-05-04 02:20 34.69857 -112.47907 23994 ft 453 kts 141°
2026-05-04 02:20 34.67565 -112.45338 23409 ft 444 kts 148°
2026-05-04 02:21 34.65164 -112.42996 22848 ft 439 kts 149°
2026-05-04 02:21 34.62800 -112.40695 22337 ft 433 kts 148°
2026-05-04 02:21 34.60464 -112.38422 21814 ft 428 kts 148°
2026-05-04 02:21 34.58149 -112.36170 21317 ft 424 kts 148°
2026-05-04 02:22 34.55862 -112.33943 20785 ft 420 kts 148°
2026-05-04 02:22 34.53595 -112.31736 20278 ft 416 kts 148°
2026-05-04 02:22 34.51348 -112.29548 19766 ft 413 kts 148°
2026-05-04 02:22 34.49121 -112.27376 19267 ft 410 kts 147°
2026-05-04 02:23 34.46929 -112.25241 19077 ft 396 kts 149°
2026-05-04 02:23 34.44698 -112.23539 18872 ft 373 kts 160°
2026-05-04 02:23 34.42351 -112.22433 18690 ft 353 kts 171°
2026-05-04 02:23 34.39987 -112.21794 18349 ft 345 kts 175°
2026-05-04 02:24 34.37652 -112.21204 17989 ft 341 kts 174°
2026-05-04 02:24 34.35340 -112.20613 17618 ft 338 kts 174°
2026-05-04 02:24 34.33045 -112.20020 17268 ft 336 kts 174°
2026-05-04 02:24 34.30766 -112.19428 16922 ft 334 kts 173°
2026-05-04 02:25 34.28505 -112.18837 16582 ft 331 kts 173°
2026-05-04 02:25 34.26258 -112.18253 16232 ft 329 kts 173°
2026-05-04 02:25 34.24030 -112.17678 15893 ft 326 kts 173°
2026-05-04 02:25 34.21825 -112.17111 15560 ft 322 kts 173°
2026-05-04 02:26 34.19669 -112.16558 15232 ft 321 kts 172°
2026-05-04 02:26 34.17485 -112.15996 14881 ft 320 kts 172°
2026-05-04 02:26 34.15304 -112.15433 14557 ft 320 kts 172°
2026-05-04 02:26 34.13132 -112.14872 14235 ft 317 kts 171°
2026-05-04 02:27 34.11014 -112.14322 14104 ft 306 kts 171°
2026-05-04 02:27 34.08962 -112.13787 13940 ft 298 kts 170°
2026-05-04 02:27 34.06993 -112.13042 13737 ft 295 kts 165°
2026-05-04 02:27 34.05064 -112.12253 13477 ft 290 kts 164°
2026-05-04 02:28 34.03165 -112.11476 13204 ft 287 kts 164°
2026-05-04 02:28 34.01272 -112.10705 12932 ft 287 kts 165°
2026-05-04 02:28 33.99387 -112.09940 12648 ft 285 kts 164°
2026-05-04 02:28 33.97509 -112.09177 12383 ft 285 kts 164°
2026-05-04 02:29 33.95662 -112.08428 12119 ft 283 kts 164°
2026-05-04 02:29 33.93773 -112.07665 11848 ft 282 kts 164°
2026-05-04 02:29 33.91938 -112.06923 11586 ft 282 kts 164°
2026-05-04 02:29 33.90059 -112.06163 11317 ft 281 kts 164°
2026-05-04 02:30 33.88237 -112.05424 11065 ft 279 kts 164°
2026-05-04 02:30 33.86403 -112.04680 10786 ft 278 kts 164°
2026-05-04 02:30 33.84570 -112.03935 10499 ft 277 kts 164°
2026-05-04 02:30 33.82749 -112.03196 10226 ft 276 kts 164°
2026-05-04 02:31 33.80929 -112.02458 9937 ft 275 kts 164°
2026-05-04 02:31 33.79124 -112.01726 9650 ft 273 kts 164°
2026-05-04 02:31 33.77326 -112.00997 9367 ft 272 kts 163°
2026-05-04 02:31 33.75522 -112.00267 9098 ft 274 kts 163°
2026-05-04 02:32 33.73728 -111.99538 9034 ft 273 kts 164°
2026-05-04 02:32 33.71927 -111.98807 8961 ft 272 kts 164°
2026-05-04 02:32 33.70153 -111.98094 8901 ft 273 kts 164°
2026-05-04 02:32 33.68352 -111.97371 8802 ft 272 kts 163°
2026-05-04 02:33 33.66593 -111.96660 8676 ft 262 kts 163°
2026-05-04 02:33 33.64898 -111.95971 8544 ft 253 kts 164°
2026-05-04 02:33 33.63248 -111.95302 8331 ft 248 kts 164°
2026-05-04 02:33 33.61570 -111.94596 7631 ft 263 kts 164°
2026-05-04 02:34 33.59817 -111.93842 7169 ft 269 kts 164°
2026-05-04 02:34 33.58068 -111.93078 6770 ft 266 kts 163°
2026-05-04 02:34 33.56336 -111.92299 6189 ft 265 kts 163°
2026-05-04 02:34 33.54671 -111.91539 6038 ft 246 kts 164°
2026-05-04 02:35 33.53157 -111.90829 5920 ft 227 kts 163°
2026-05-04 02:35 33.51739 -111.90150 5809 ft 207 kts 163°
2026-05-04 02:35 33.50437 -111.89510 5503 ft 196 kts 162°
2026-05-04 02:35 33.49380 -111.88601 5358 ft 190 kts 129°
2026-05-04 02:36 33.48965 -111.87103 4992 ft 198 kts 99°
2026-05-04 02:36 33.48932 -111.85387 4428 ft 211 kts 92°
2026-05-04 02:36 33.48966 -111.83608 4061 ft 214 kts 95°
2026-05-04 02:36 33.48591 -111.81932 4029 ft 207 kts 131°
2026-05-04 02:37 33.47543 -111.80915 4038 ft 181 kts 167°
2026-05-04 02:37 33.46398 -111.80744 4013 ft 156 kts 201°
2026-05-04 02:37 33.45594 -111.81474 4035 ft 145 kts 238°
2026-05-04 02:37 33.45180 -111.82582 4035 ft 147 kts 248°
2026-05-04 02:38 33.44849 -111.83756 3878 ft 151 kts 249°
2026-05-04 02:38 33.44539 -111.84951 3558 ft 152 kts 250°
2026-05-04 02:38 33.44253 -111.86152 3289 ft 148 kts 256°
2026-05-04 02:38 33.44113 -111.87355 2888 ft 145 kts 264°
2026-05-04 02:39 33.44102 -111.88501 2693 ft 134 kts 267°
2026-05-04 02:39 33.44059 -111.89580 2632 ft 128 kts 254°
2026-05-04 02:39 33.43911 -111.90659 2491 ft 135 kts 263°
2026-05-04 02:39 33.43990 -111.91785 2237 ft 137 kts 273°
2026-05-04 02:40 33.44100 -111.92905 2031 ft 132 kts 263°
2026-05-04 02:40 33.44045 -111.93978 1864 ft 128 kts 266°
2026-05-04 02:40 33.44065 -111.95049 1746 ft 132 kts 269°
2026-05-04 02:40 33.44063 -111.96138 1609 ft 130 kts 267°
2026-05-04 02:41 33.44066 -111.97201 1448 ft 128 kts 269°
2026-05-04 02:41 33.44078 -111.98272 1289 ft 128 kts 268°
2026-05-04 02:41 33.44080 -111.99332 1148 ft 125 kts 269°
2026-05-04 02:41 33.44081 -112.00220 1135 ft 84 kts 270°
2026-05-04 02:42 33.44083 -112.00715 1129 ft 40 kts 269°
2026-05-04 02:42 33.44081 -112.00975 1130 ft 16 kts 268°
2026-05-04 02:42 33.44035 -112.01081 1132 ft 16 kts 201°
2026-05-04 02:42 33.43976 -112.01025 1119 ft 13 kts 101°
2026-05-04 02:43 33.43975 -112.00908 1120 ft 15 kts 91°
2026-05-04 02:43 33.43972 -112.00786 1126 ft 10 kts 98°
2026-05-04 02:43 33.43918 -112.00723 1117 ft 12 kts 138°
2026-05-04 02:43 33.43901 -112.00619 1125 ft 13 kts 90°
2026-05-04 02:44 33.43901 -112.00501 1125 ft 15 kts 89°
2026-05-04 02:44 33.43904 -112.00366 1125 ft 17 kts 88°
2026-05-04 02:44 33.43905 -112.00230 1125 ft 14 kts 90°
2026-05-04 02:44 33.43905 -112.00106 1125 ft 16 kts 90°
2026-05-04 02:45 33.43904 -111.99965 1125 ft 18 kts 90°
2026-05-04 02:45 33.43904 -111.99858 1125 ft 8 kts 98°
2026-05-04 02:45 33.43855 -111.99826 1121 ft 10 kts 174°
2026-05-04 02:45 33.43806 -111.99827 1119 ft 6 kts 192°
2026-05-04 02:46 33.43794 -111.99859 1119 ft 1 kts 268°
2026-05-04 02:46 33.43794 -111.99877 1125 ft 2 kts 270°
2026-05-04 02:46 33.43794 -111.99880 1125 ft 0 kts 270°